This is the latest recevied weather packets stored in our database for station/object SR8WXL-13. If no packets are shown the sender has not sent any weather packets the latest 10 day(s).
| Time | Temp. | Humidity | Pressure | Rain* | Wind** | Luminosity | Snow |
|---|---|---|---|---|---|---|---|
| 1788157409 | 22.22° C | 67% | 1031.3 hPa | 0 mm | - | - | - |
| 1788156613 | 22.22° C | 68% | 1031.4 hPa | 0 mm | - | - | - |
| 1788155746 | 21.11° C | 69% | 1031.4 hPa | 0 mm | - | - | - |
| 1788154898 | 20° C | 72% | 1031.4 hPa | 0 mm | - | - | - |
| 1788154102 | 20° C | 73% | 1031.5 hPa | 0 mm | - | - | - |
| 1788153279 | 18.89° C | 73% | 1031.2 hPa | 0 mm | - | - | - |
| 1788152533 | 18.89° C | 74% | 1031.4 hPa | 0 mm | - | - | - |
| 1788151773 | 18.89° C | 73% | 1031.4 hPa | 0 mm | - | - | - |
| 1788150918 | 17.78° C | 74% | 1031.4 hPa | 0 mm | - | - | - |
| 1788150083 | 17.78° C | 73% | 1031.3 hPa | 0 mm | - | - | - |
| 1788149318 | 17.78° C | 74% | 1031.2 hPa | 0 mm | - | - | - |
| 1788148544 | 17.78° C | 76% | 1031.2 hPa | 0 mm | - | - | - |
| 1788147768 | 17.78° C | 75% | 1031.3 hPa | 0 mm | - | - | - |
| 1788147022 | 17.78° C | 76% | 1031.2 hPa | 0 mm | - | - | - |
| 1788146198 | 17.78° C | 76% | 1031.3 hPa | 0 mm | - | - | - |
| 1788145434 | 17.22° C | 77% | 1031.1 hPa | 0 mm | - | - | - |
| 1788144648 | 17.22° C | 77% | 1031.1 hPa | 0 mm | - | - | - |
| 1788143903 | 17.22° C | 78% | 1031.2 hPa | 0 mm | - | - | - |
| 1788143098 | 17.22° C | 79% | 1031.1 hPa | 0 mm | - | - | - |
| 1788142234 | 17.22° C | 79% | 1031 hPa | 0 mm | - | - | - |
| 1788141508 | 17.22° C | 79% | 1031.3 hPa | 0 mm | - | - | - |
| 1788140739 | 17.22° C | 80% | 1030.8 hPa | 0 mm | - | - | - |
| 1788139853 | 15° C | 85% | 1031 hPa | 0 mm | - | - | - |
| 1788138978 | 16.11° C | 82% | 1030.9 hPa | 0 mm | - | - | - |
| 1788138133 | 16.11° C | 82% | 1031 hPa | 0 mm | - | - | - |
* Rain latest hour (hover to see other rain measurements)
** Current wind speed in m/s (hover to see current wind gust speed)